Theta_e
344 348 349 345 356 356 359 356 351 352 352 345 344 346 348 350 348 349 342 343 343 343 341 343 340 340 343 341 344 346 345 347 348 351 351 351 351 345 351 352 352 350 351 351 351 351 352 351 352
337 343 347 350 357 355 360 352 352 349 346 346 348 349 351 351 345 343 343 343 343 343 343 344 337 339 341 342 343 344 344 345 348 350 349 351 352 352 349 351 351 351 349 349 349 348 348 351 351
337 340 347 355 359 362 359 353 350 346 346 346 350 348 348 347 343 342 341 343 345 346 345 343 338 339 339 339 341 342 342 342 344 348 350 349 352 352 351 350 351 352 352 352 352 352 352 352 352
349 348 349 359 362 357 355 351 348 349 347 347 348 352 346 341 342 344 342 345 345 345 344 340 338 337 337 338 340 334 343 339 346 349 351 352 353 352 353 352 352 352 353 352 346 346 352 352 349
347 349 359 360 360 356 355 350 350 349 347 348 345 349 347 347 346 342 342 344 343 346 345 346 340 338 339 340 339 340 338 343 346 350 352 350 347 348 351 349 353 353 353 345 347 349 349 349 347
351 350 360 363 359 355 354 352 351 350 347 346 347 348 350 347 344 343 342 342 343 345 345 346 344 342 341 339 342 344 344 345 344 346 346 346 346 350 353 352 353 353 349 350 348 347 347 347 345
351 356 358 359 360 357 355 349 353 350 347 348 346 350 348 347 344 343 343 344 346 346 347 347 345 348 344 344 344 347 345 344 344 344 341 347 348 352 352 353 352 352 349 350 346 347 345 347 347
349 354 356 357 360 359 351 349 348 349 349 345 344 349 351 347 344 344 345 346 347 347 347 349 349 349 350 349 346 346 345 347 345 346 346 348 352 351 351 349 351 350 349 346 346 346 344 344 345
348 356 359 356 355 354 348 352 350 348 346 347 347 346 345 347 347 345 346 346 347 348 348 349 349 350 349 350 349 345 344 345 348 349 348 350 348 347 347 349 348 345 342 342 343 343 342 341 341
350 355 352 349 348 351 350 349 352 351 348 350 348 346 347 348 347 345 344 344 347 347 346 350 350 349 349 349 349 345 344 344 345 348 348 349 349 350 348 348 350 343 336 335 338 340 340 339 342
351 355 350 348 346 348 352 352 349 352 351 349 350 350 348 347 346 344 343 343 346 343 345 350 350 350 349 350 348 349 346 345 346 345 344 343 344 349 349 350 349 348 341 342 341 342 344 343 345
354 353 350 348 349 348 352 350 351 350 350 346 345 347 347 348 347 346 343 344 345 344 346 350 350 349 350 349 348 347 345 344 343 344 343 343 346 346 342 344 341 343 344 345 345 349 346 347 346
351 353 350 350 348 348 347 350 351 351 348 346 344 346 347 348 347 346 343 344 345 344 346 348 349 348 346 349 343 344 343 346 347 346 345 344 345 340 340 340 343 344 344 345 345 346 347 343 343
348 353 351 349 349 349 351 350 351 350 348 347 346 347 347 347 346 344 344 344 345 343 345 348 348 348 345 343 339 341 344 347 345 345 345 343 341 341 343 344 343 346 345 345 345 345 347 347 345
351 355 353 352 350 351 348 351 354 349 348 348 347 346 346 346 346 344 344 343 343 343 344 347 348 347 343 342 343 345 346 347 346 344 343 342 343 346 345 345 345 347 347 346 344 345 346 349 342
354 353 357 355 351 350 348 354 351 348 350 349 348 346 346 346 346 345 345 343 342 343 345 347 345 347 343 341 344 345 345 346 345 344 346 345 343 346 344 344 345 345 345 345 346 346 350 345 343
354 357 356 358 353 352 351 354 348 349 350 351 349 348 347 347 345 345 345 344 342 341 344 345 347 346 344 339 345 344 344 345 345 343 344 344 344 345 343 344 345 344 344 345 346 348 349 346 344
355 354 352 354 355 354 355 355 349 349 350 351 350 349 348 348 346 345 345 345 345 343 343 345 345 346 343 342 344 345 344 345 344 343 345 344 344 344 343 344 345 344 342 345 347 348 346 347 344
345 350 344 350 354 356 357 354 353 349 350 350 349 349 347 348 345 344 345 345 345 345 344 344 346 343 343 344 345 346 345 346 346 343 344 344 344 345 343 343 343 343 342 343 346 352 353 350 342
329 330 334 353 353 353 352 355 351 350 351 350 349 348 347 346 346 344 344 345 345 345 344 345 345 343 342 344 344 345 345 345 346 344 344 345 343 346 345 344 342 342 342 342 346 349 352 351 348
327 328 332 336 353 350 357 357 356 353 348 349 348 347 346 346 344 345 345 345 345 345 345 344 345 341 343 343 342 342 342 345 345 344 346 344 344 346 344 342 344 342 341 346 345 346 348 353 350
328 325 326 353 352 349 353 350 352 355 355 349 349 348 347 346 345 343 345 345 345 345 345 344 344 342 342 343 344 345 344 344 345 347 345 342 344 346 344 345 346 343 338 343 347 345 345 348 354
327 325 335 348 347 344 354 349 350 356 357 355 350 347 347 346 345 345 345 346 346 346 345 344 344 344 344 342 342 345 345 345 348 347 343 343 345 345 343 347 346 345 337 342 348 346 344 347 353
330 337 339 341 344 346 343 347 344 358 356 352 350 349 346 346 346 345 344 345 347 347 346 345 345 343 344 341 341 344 345 345 347 347 346 346 347 346 343 347 347 347 342 340 346 348 347 346 345
337 340 344 344 345 341 339 345 342 347 346 348 349 349 347 346 346 346 346 345 347 347 346 346 346 346 345 345 344 343 346 345 343 345 347 347 347 348 346 345 347 348 346 344 340 340 345 351 349
337 340 335 337 337 335 339 345 343 345 343 346 345 345 347 348 345 346 346 345 346 346 347 347 347 347 345 346 346 345 343 347 346 347 347 347 347 348 347 343 346 347 347 347 345 347 350 348 351
328 338 328 331 330 333 334 340 340 344 342 343 344 343 347 346 345 345 345 345 344 345 346 346 348 348 347 346 346 346 343 345 346 344 343 347 347 347 346 344 345 346 347 347 348 351 352 351 350
325 325 328 330 333 332 338 345 339 348 347 342 342 340 339 340 345 345 346 346 346 344 345 346 347 348 347 346 346 346 346 345 344 345 344 344 345 344 346 344 346 346 346 347 349 352 352 350 351
329 331 335 333 335 331 334 336 343 345 345 344 339 339 342 343 343 344 344 345 347 346 344 345 347 348 347 347 347 346 346 347 347 347 345 345 344 345 346 345 345 347 346 346 347 348 349 352 352
329 334 334 330 341 342 340 337 339 341 341 340 339 338 342 343 345 346 346 344 346 346 346 346 347 347 347 347 347 347 347 347 347 348 346 343 344 345 345 346 346 348 349 348 347 350 351 353 352
Wind_Speed
7 5 2 1 1 1 3 4 2 6 6 2 10 2 5 6 2 3 9 5 13 13 13 10 10 10 10 10 10 11 14 14 14 15 16 15 17 17 15 16 17 18 18 18 17 17 17 17 17
7 4 0 0 2 4 4 4 6 4 5 11 10 7 4 5 4 10 8 13 15 15 12 10 11 11 11 10 10 10 12 12 12 14 16 16 16 16 17 17 17 18 19 19 18 18 18 17 17
5 2 1 2 2 4 3 6 6 11 8 6 4 7 4 3 8 10 11 16 15 13 12 10 10 11 11 12 11 9 9 11 9 13 16 17 16 16 17 17 16 18 18 18 18 18 17 16 15
3 2 1 3 9 4 5 8 13 7 3 4 10 9 6 7 9 7 17 16 15 13 12 12 12 12 14 15 11 12 10 10 10 14 15 16 16 16 16 16 17 17 18 17 15 17 15 12 11
1 1 3 4 4 3 7 9 4 2 3 4 4 7 8 5 8 19 17 15 15 14 13 13 14 11 13 12 11 11 8 9 11 15 15 15 17 17 17 17 17 16 16 16 16 15 14 12 10
1 1 3 4 3 1 4 5 2 7 6 8 12 10 4 7 16 16 15 14 14 15 14 13 14 14 13 11 11 11 10 11 13 17 17 16 17 16 17 17 16 15 16 15 13 12 14 13 12
1 2 3 7 6 3 2 4 4 5 5 5 7 6 5 9 14 16 14 12 12 12 13 13 12 10 10 10 10 11 10 12 15 16 18 12 16 17 15 16 15 14 14 12 13 12 12 13 12
2 3 3 1 6 4 2 2 2 2 5 7 5 6 7 12 16 16 14 11 10 11 10 11 10 9 9 9 10 11 12 12 14 14 14 14 16 15 14 15 13 12 11 11 11 9 9 9 9
1 2 4 5 5 3 1 3 4 1 8 4 4 4 13 22 19 17 15 12 10 9 9 10 9 9 9 9 9 11 12 11 11 13 13 15 13 13 13 12 12 11 11 10 9 7 6 6 7
2 1 4 6 6 5 5 3 5 1 11 3 8 14 22 21 20 19 16 15 12 11 10 10 9 9 9 8 9 11 10 9 11 11 12 12 11 11 12 11 10 10 9 8 7 6 5 4 3
2 2 1 5 7 9 5 3 2 1 9 6 12 17 19 19 17 16 15 13 12 12 11 10 9 9 8 9 9 7 8 8 7 10 10 11 10 9 9 9 8 7 8 5 5 3 2 1 0
3 2 2 6 7 5 6 2 2 1 2 7 16 20 20 16 16 15 16 14 13 12 12 10 9 9 9 8 7 7 8 8 7 8 8 8 7 6 8 6 7 6 6 5 3 1 1 3 5
3 6 6 8 8 9 3 1 3 5 1 13 17 16 16 14 14 12 12 13 13 14 13 11 9 9 10 8 10 10 10 8 7 7 6 5 5 6 5 5 4 4 2 1 0 1 1 2 2
3 9 11 7 7 5 8 2 4 3 13 15 19 17 14 14 15 13 14 14 15 15 14 12 11 9 9 10 13 12 9 6 5 3 3 4 5 3 3 2 3 4 3 2 2 3 3 3 4
11 10 8 5 5 4 8 3 5 4 11 16 17 15 13 13 15 15 14 14 15 15 14 13 12 11 11 11 12 11 7 5 6 7 5 5 4 4 3 4 3 4 6 4 3 3 4 2 4
2 2 2 4 6 4 4 1 6 4 11 14 17 14 13 14 15 16 14 14 15 14 14 14 13 11 10 11 12 9 7 5 5 4 4 5 5 3 3 2 3 3 5 5 3 2 3 1 2
2 2 2 5 6 5 7 1 3 5 12 13 15 14 13 13 16 16 18 16 15 16 15 15 14 12 12 13 10 9 8 6 4 4 5 6 6 4 1 2 1 2 3 4 3 3 2 2 1
5 3 2 2 9 6 9 8 2 7 12 14 14 14 14 14 17 19 17 16 16 16 16 16 18 15 15 14 13 11 11 9 5 6 5 5 6 4 3 2 1 1 2 3 2 2 2 3 3
2 3 1 2 8 7 11 8 8 8 11 12 10 15 15 17 17 15 16 17 16 15 17 19 18 19 18 15 11 10 11 10 8 8 8 6 6 6 6 4 3 4 3 2 0 1 2 3 3
3 3 1 4 7 7 4 10 9 11 15 17 15 16 17 15 13 16 17 18 19 19 18 19 20 21 18 14 13 11 12 11 10 10 9 10 8 10 8 7 6 7 5 4 2 2 2 2 2
7 7 4 1 7 4 1 3 5 7 10 13 16 19 17 16 13 14 18 20 19 21 21 22 24 24 23 18 11 13 13 11 13 11 11 13 11 10 9 8 7 6 7 5 4 3 3 1 0
10 10 3 9 7 1 5 1 2 6 10 11 13 16 17 17 15 8 18 20 21 22 19 19 21 22 25 23 16 13 15 15 13 12 13 14 12 9 9 7 7 5 7 6 5 5 4 4 3
7 4 9 11 4 3 5 3 3 2 8 13 12 13 15 14 17 18 18 22 22 20 21 20 20 20 21 25 22 18 16 14 10 11 15 15 14 12 10 10 7 5 6 5 6 4 4 4 4
9 9 8 5 2 4 1 3 2 4 3 3 2 6 14 14 17 20 20 21 20 19 19 20 20 22 21 23 24 22 19 15 12 14 13 13 13 12 12 12 10 8 5 5 5 5 4 4 4
7 10 4 4 4 3 1 4 4 5 5 5 7 7 6 13 16 17 17 21 21 22 21 20 21 22 22 22 22 22 20 17 18 15 15 13 13 12 13 14 12 10 8 8 9 8 6 5 4
10 9 6 8 6 4 3 4 1 3 1 3 6 8 11 10 16 17 20 19 21 23 22 22 22 21 22 22 24 24 25 18 16 16 14 14 14 14 13 14 14 12 12 9 8 8 7 8 7
6 5 2 4 2 3 1 3 7 6 5 4 6 6 6 5 8 14 18 20 18 21 23 25 23 23 21 24 23 24 26 24 18 18 19 16 15 14 15 15 15 14 13 13 10 9 9 9 8
2 7 4 3 7 8 4 4 6 7 11 4 3 4 5 5 3 8 12 19 21 20 23 22 23 25 25 23 23 24 24 26 24 21 20 19 17 18 16 16 18 16 15 13 14 10 11 11 10
4 4 4 2 2 7 8 4 4 5 8 7 4 3 6 5 4 5 10 15 21 22 27 20 23 23 25 23 22 22 22 22 22 21 22 21 19 18 16 18 20 19 17 16 16 16 14 11 11
1 3 5 5 5 0 3 4 3 2 4 3 3 4 3 5 7 7 9 13 18 22 23 23 24 23 25 25 22 22 21 21 22 21 22 23 23 19 17 16 17 18 18 18 19 18 15 14 14
Wind_Direction
149 149 137 196 180 89 82 75 91 121 144 89 141 145 104 49 14 68 129 145 138 137 140 136 131 133 126 119 115 121 120 118 120 116 114 112 111 110 108 108 106 102 103 104 104 107 105 105 102
157 152 144 125 77 112 82 30 90 77 114 124 103 119 73 77 64 117 119 140 136 134 132 133 133 135 125 122 116 110 112 112 113 117 116 117 116 115 107 109 109 108 106 107 109 109 110 109 102
152 181 297 68 85 97 71 52 97 108 125 152 106 64 64 67 114 126 135 140 132 126 125 128 129 136 131 124 117 106 110 106 111 117 119 118 115 114 112 110 108 110 111 109 108 108 110 108 106
152 175 143 56 94 64 67 79 115 114 105 101 116 79 81 96 128 133 141 138 131 128 123 122 122 121 118 117 108 98 108 116 134 122 116 115 116 115 112 113 114 111 110 112 110 108 109 105 98
75 257 73 94 79 101 78 82 47 86 84 127 127 110 100 46 115 138 144 142 136 130 122 122 119 115 113 116 111 118 140 137 122 114 111 112 112 114 115 112 109 113 112 110 114 106 100 92 88
163 163 120 133 131 89 87 24 80 84 102 117 113 110 84 119 134 141 146 142 138 134 129 127 126 124 112 119 123 134 131 123 109 101 102 103 104 106 108 108 111 115 113 116 110 101 93 85 88
130 75 110 139 151 154 111 7 22 113 132 107 128 99 115 142 145 142 144 142 140 138 136 132 133 127 120 123 114 117 115 106 95 90 100 108 108 105 107 108 110 118 121 117 112 103 92 86 85
81 92 110 189 189 124 57 47 333 114 91 117 149 147 161 162 152 144 143 144 146 144 142 138 136 133 123 113 103 98 98 99 110 114 117 113 99 98 106 106 109 112 121 124 116 111 94 86 83
138 97 161 191 170 165 80 82 27 344 133 71 30 112 134 149 150 146 145 151 156 154 152 149 143 137 131 114 105 101 99 100 101 101 102 103 101 102 96 103 103 115 127 123 122 113 95 81 76
31 64 177 164 145 150 130 72 351 156 154 85 80 106 132 148 156 154 161 163 167 168 168 160 155 146 137 124 114 113 111 107 100 97 102 99 97 102 106 106 107 114 122 124 124 111 97 78 90
64 29 133 130 120 123 112 111 27 124 188 192 157 146 150 156 163 165 163 167 172 174 172 172 162 155 144 136 130 119 121 123 107 102 102 103 101 99 102 105 107 105 107 114 98 92 92 80 18
102 42 43 131 117 106 114 120 131 230 6 179 159 155 155 167 173 177 166 166 175 181 179 181 176 167 156 144 138 134 126 127 119 106 108 100 86 90 97 95 93 89 94 104 102 70 300 301 295
99 111 80 117 120 115 116 23 333 274 182 140 145 160 164 170 174 178 180 176 178 183 183 184 187 184 172 157 148 137 129 126 117 113 112 93 84 91 87 81 64 44 36 4 20 343 11 17 328
120 105 115 132 128 138 161 164 302 351 143 148 157 166 175 175 181 178 181 184 186 187 187 185 188 192 187 175 156 146 138 129 120 134 143 121 99 87 40 35 22 28 62 70 99 91 55 26 19
132 101 116 118 141 150 144 205 227 87 165 157 171 172 179 184 185 196 192 191 192 194 188 186 190 195 195 183 167 158 148 137 123 123 123 131 111 76 66 72 68 61 65 73 90 75 29 45 48
128 126 126 148 177 134 201 133 168 174 178 173 175 181 187 194 200 202 198 197 197 191 193 188 185 193 200 194 181 175 170 152 146 130 127 150 147 113 72 102 99 66 50 48 57 13 2 141 75
171 132 153 149 190 154 203 306 128 169 178 184 184 188 199 203 207 207 207 202 199 197 192 190 187 192 198 198 198 196 193 185 172 163 144 147 163 168 129 114 127 53 36 29 40 324 294 163 138
176 177 173 191 191 192 203 244 137 180 192 194 193 198 204 216 219 212 211 212 205 207 199 191 200 195 199 202 207 207 203 204 195 190 183 176 194 190 207 180 193 259 326 14 33 335 188 160 168
191 157 149 203 170 187 212 233 223 193 209 188 213 212 211 219 215 214 217 211 207 201 199 195 198 199 198 201 202 210 207 210 209 203 208 210 226 232 225 228 237 264 282 309 301 61 157 131 190
263 298 7 93 166 216 222 241 221 193 206 207 201 214 216 224 214 210 207 208 207 202 201 198 198 203 202 203 204 205 202 210 207 214 218 219 230 235 243 247 254 253 249 254 239 217 213 135 185
243 251 223 298 155 208 276 259 198 209 226 213 216 220 215 217 219 210 207 211 208 208 202 201 202 205 208 210 206 214 208 198 205 218 218 220 232 233 238 247 249 258 248 244 245 240 235 239 122
242 230 217 151 174 241 219 110 266 238 239 234 224 219 219 218 213 205 211 211 211 210 207 204 204 202 207 214 211 212 207 201 204 217 219 216 219 224 229 246 250 262 244 245 235 237 234 242 244
240 159 156 162 144 189 180 257 135 279 261 245 227 232 229 220 211 211 208 211 214 203 203 204 203 203 200 208 221 222 221 211 209 202 205 210 217 222 238 239 246 259 221 240 232 232 226 236 246
146 112 106 126 165 232 115 270 216 195 223 280 193 246 226 218 221 218 213 209 214 210 205 198 200 208 207 211 216 219 218 210 202 201 205 211 217 225 235 232 240 247 246 224 237 233 220 224 235
185 186 162 194 209 267 136 219 282 193 222 265 301 298 264 236 222 212 206 202 204 206 206 204 200 207 207 202 210 211 220 222 220 215 214 214 214 222 230 231 236 239 253 250 248 245 243 234 234
178 215 203 227 240 247 158 228 219 209 191 242 273 297 301 261 218 215 210 210 205 206 206 205 204 208 205 205 211 214 219 222 222 220 218 223 225 231 231 230 234 241 246 252 249 246 240 246 235
158 200 61 110 92 253 175 261 250 201 235 253 279 306 330 322 230 222 218 210 205 205 209 207 209 210 210 209 211 214 216 221 223 226 231 238 241 240 241 235 236 238 237 245 242 239 244 249 248
200 126 184 222 225 247 210 253 251 220 222 221 265 297 319 322 274 231 223 222 218 206 210 211 218 213 212 212 215 216 213 220 226 232 236 238 245 243 242 244 239 237 232 237 235 240 245 246 246
145 171 73 111 310 255 260 246 209 243 213 215 223 321 340 335 304 254 237 229 219 208 210 222 221 218 214 214 216 217 216 219 226 229 238 239 241 239 249 246 245 233 233 235 239 239 245 241 239
81 155 187 244 189 73 298 261 181 212 167 212 282 302 332 331 311 287 264 233 220 216 209 216 221 218 218 215 214 218 222 222 226 231 234 240 240 240 247 242 237 230 236 236 239 240 236 242 248